ARIANE 42P DEB, 44512

Orbit data source: Space-Track

ARIANE 42P DEB, 44512 is space debris in LEO originally from a launch on Mon, 10 Aug 1992 UTC launched from the French Guiana (FRGUI). Debris objects in space refer to the collection of defunct objects orbiting the Earth. Examples of debris include non-operational satellites, rocket bodies, and fragments generated from explosions, collisions, or faulty payload assembly.

Loading next visibility...
Identifier
44512, 1992-052K
Orbit
LEO
Country
Flag of FRFR
Related business
Manufacturer
ArianeGroup
Mission
Spacecraft
Bus & Motor
Unknown
Mass
Unknown
Launch date (UTC)
1992-08-10 (33 years ago)
Launch vehicle
Unknown
Launch site
French Guiana (FRGUI)
Object type
Payload
Rocket body
Debris
Shape & HBR
Unknown
Radar Cross Section
Small (<0.1 m²)

Expand to show TLE details & history
Last TLE update: 1 day ago

TLE from 1 day ago
0 ARIANE 42P DEB
1 44512U 92052K   25259.82562277  .00002097  00000-0  76365-2 0  9993
2 44512  65.9136  82.6352 0248284  82.5518 280.3635 12.86024199285218
Epoch: 2025-09-16T19:48Z
TLE epoch observation values (Epoch: 2025-09-16T19:48:53.807Z)
Latitude
0.00006°
Longitude
149.40067°
Altitude
1,289.495 km
Speed
7.226 km/s
True Right ascension
05h 30m 32s
True Declination
0° 00' 00"
Sunlit
Object was in daylight at epoch
Visualization orbit readout
Latitude
Unknown
Longitude
Unknown
Altitude
Unknown
Speed
Unknown
Apparent Right ascension
Unknown
Apparent Declination
Unknown
Sunlit
N/A
Visualization observer readout
Local Sidereal Time
15:39:19
Azimuth
Unknown
Elevation
Unknown
Doppler factor
Unknown
Orbital elements
Apogee altitude
1,506.947 km
Perigee altitude
1,124.884 km
Semi-major axis
7,694.052 km
Eccentricity
0.02483
Inclination
65.9136°
RAAN
82.6352°
Arg. of periapsis
82.5518°
True anomaly
277.55021°
Mean anomaly
280.3635°
Eccentric anomaly
278.95829°
Mean motion
3.21596 °/min
Orbital period
111.94 mins
BSTAR
0.0076365
Loading maneuver chart data...
Computing Atmospheric mass density...
Loading historical data...
Loading historical data...
Loading historical data...
Loading historical data...
Loading historical data...
Loading historical data...
Loading historical data...

Documentation

Showing up to 5 results
|